Location: Izdebno
(52.6670°N, 16.2170°E)
Time: 18:53:00
(UTC+02:00)

Transit 4A - Pass Details

Date: 23 February 2024
Orbit: 871 x 972 km, 66.8° (Epoch: 21 April)

Event Time Altitude Azimuth Distance (km) Brightness Sun altitude
Rises 02:49:14 0° 226° (SW) 3,599 - -36.5°
Reaches altitude 10° 02:51:49 10° 229° (SW) 2,643 - -36.2°
Maximum altitude 02:57:57 70° 313° (NW) 979 - -35.5°
Exits shadow 03:00:02 42° 23° (NNE) 1,282 8.8 -35.2°
Drops below altitude 10° 03:03:57 10° 37° (NE) 2,586 10.9 -34.7°
Sets 03:06:27 0° 40° (NE) 3,516 11.9 -34.4°
